Montgomery, AL

6:22 PM CDT on July 25, 2017 (GMT -0500)
Montgomery Regional

Weather History for KMGM - April, 2013

Change the Weather History Date:

Friday, April 19, 2013

  Actual Average Record
Temperature  
Mean Temperature 60 °F 65 °F  
Max Temperature 75 °F 77 °F 89 °F (2006)
Min Temperature 45 °F 52 °F 34 °F (1983)
Degree Days  
Heating Degree Days 5 3  
Month to date heating degree days 49 78  
Since 1 July heating degree days 1897 2205  
Cooling Degree Days 0 3  
Month to date cooling degree days 69 35  
Year to date cooling degree days 102 64  
Growing Degree Days 4 (Base 50)    
Moisture  
Dew Point 54 °F    
Average Humidity 84    
Maximum Humidity 93    
Minimum Humidity 74    
Precipitation  
Precipitation 0.76 in 0.13 in 1.69 in (1880)
Month to date precipitation 3.88 2.78  
Year to date precipitation 24.02 18.66  
Snow  
Snow 0.00 in 0.00 in - ()
Month to date snowfall 0.0 0.0  
Since 1 July snowfall 0.0 0.4  
Snow Depth 0.00 in    
Sea Level Pressure  
Sea Level Pressure 29.95 in    
Wind  
Wind Speed 9 mph (West)    
Max Wind Speed 22 mph    
Max Gust Speed 28 mph    
Visibility 9 miles    
Events Rain    
T = Trace of Precipitation, MM = Missing Value Source: NWS Daily Summary

Daily Weather History Graph

Daily Weather History Graph

Search for Another Location

Airport or City:

Trip Planner

Search our weather history database for the weather conditions in past years. The results will help you decide how hot, cold, wet, or windy it might be!

Date:

Astronomy

Apr. 19, 2013 Rise Set
Actual Time 6:11 AM CDT 7:18 PM CDT
Civil Twilight 5:46 AM CDT 7:43 PM CDT
Nautical Twilight 5:16 AM CDT 8:13 PM CDT
Astronomical Twilight 4:44 AM CDT 8:45 PM CDT
Moon 1:22 PM CDT (4/19) 2:04 AM CDT (4/19)
Length of Visible Light 13h 57m
Length of Day
13h 06m
First Quarter, 62% of the Moon is Illuminated
Apr 19
First Quarter
Apr 25
Full
May 2
Last Quarter
May 9
New
May 17
First Quarter

Hourly Weather History & Observations

Time (CDT) Temp. Windchill Dew Point Humidity Pressure Visibility Wind Dir Wind Speed Gust Speed Precip Events Conditions
12:53 AM 73.9 °F - 66.9 °F 79% 29.84 in 10.0 mi South 11.5 mph - N/A   Overcast
1:18 AM 73.4 °F - 66.2 °F 78% 29.84 in 10.0 mi South 15.0 mph 23.0 mph N/A   Mostly Cloudy
1:28 AM 73.4 °F - 66.2 °F 78% 29.83 in 10.0 mi SSE 12.7 mph 19.6 mph N/A   Scattered Clouds
1:53 AM 73.0 °F - 66.9 °F 81% 29.81 in 10.0 mi South 10.4 mph 19.6 mph N/A   Mostly Cloudy
2:13 AM 73.4 °F - 66.2 °F 78% 29.80 in 10.0 mi SSE 12.7 mph 19.6 mph N/A   Scattered Clouds
2:41 AM 73.4 °F - 66.2 °F 78% 29.81 in 10.0 mi South 11.5 mph - N/A   Mostly Cloudy
2:53 AM 73.9 °F - 66.9 °F 79% 29.80 in 10.0 mi South 10.4 mph 16.1 mph N/A   Mostly Cloudy
3:53 AM 75.0 °F - 66.9 °F 76% 29.81 in 10.0 mi SSW 10.4 mph 18.4 mph N/A   Overcast
4:23 AM 75.2 °F - 68.0 °F 78% 29.81 in 9.0 mi South 9.2 mph 20.7 mph 0.00 in Rain Light Rain
4:53 AM 73.9 °F - 68.0 °F 82% 29.80 in 10.0 mi South 9.2 mph - 0.00 in   Mostly Cloudy
5:53 AM 73.0 °F - 66.9 °F 81% 29.83 in 10.0 mi WNW 21.9 mph 27.6 mph 0.00 in Rain Light Rain
6:05 AM 66.2 °F - 62.6 °F 88% 29.83 in 10.0 mi WNW 16.1 mph 27.6 mph 0.00 in Rain Light Rain
6:36 AM 62.6 °F - 60.8 °F 94% 29.87 in 5.0 mi West 10.4 mph - 0.02 in Rain Rain
6:49 AM 62.6 °F - 60.8 °F 94% 29.89 in 5.0 mi WSW 11.5 mph - 0.04 in Rain Rain
6:53 AM 62.1 °F - 59.0 °F 90% 29.88 in 4.0 mi WSW 9.2 mph 17.3 mph 0.07 in Rain Heavy Rain
7:21 AM 60.8 °F - 57.2 °F 88% 29.84 in 6.0 mi North 5.8 mph - 0.07 in Rain Light Rain
7:43 AM 60.8 °F - 57.2 °F 88% 29.88 in 9.0 mi NW 16.1 mph - 0.10 in Rain Light Rain
7:53 AM 60.1 °F - 55.9 °F 86% 29.89 in 8.0 mi WNW 13.8 mph - 0.11 in Rain Rain
8:53 AM 55.9 °F - 53.1 °F 90% 29.96 in 10.0 mi West 13.8 mph - 0.04 in Rain Light Rain
9:05 AM 55.4 °F - 51.8 °F 88% 29.96 in 2.5 mi WNW 11.5 mph - 0.05 in Rain Rain
9:50 AM 53.6 °F - 50.0 °F 88% 30.01 in 3.0 mi West 13.8 mph 18.4 mph 0.28 in Rain Heavy Rain
9:53 AM 53.1 °F - 50.0 °F 89% 30.01 in 2.5 mi West 11.5 mph - 0.31 in Rain Heavy Rain
10:14 AM 53.6 °F - 50.0 °F 88% 30.03 in 3.0 mi WNW 13.8 mph - 0.11 in Rain Rain
10:53 AM 53.1 °F - 48.9 °F 86% 30.01 in 10.0 mi WNW 13.8 mph 19.6 mph 0.18 in Rain Light Rain
11:53 AM 51.1 °F - 46.9 °F 86% 30.02 in 10.0 mi WNW 16.1 mph 19.6 mph 0.01 in Rain Light Rain
12:34 PM 50.0 °F - 44.6 °F 82% 29.98 in 10.0 mi NW 12.7 mph - 0.03 in Rain Light Rain
12:48 PM 48.2 °F - 44.6 °F 87% 30.02 in 10.0 mi WNW 6.9 mph 20.7 mph 0.04 in Rain Light Rain
12:53 PM 50.0 °F - 46.0 °F 86% 30.02 in 10.0 mi WNW 11.5 mph - 0.04 in Rain Light Rain
1:53 PM 50.0 °F - 46.0 °F 86% 30.03 in 10.0 mi WNW 3.5 mph - 0.00 in   Overcast
2:53 PM 50.0 °F - 45.0 °F 83% 30.01 in 10.0 mi NW 4.6 mph - 0.00 in Rain Light Rain
3:53 PM 51.1 °F - 44.1 °F 77% 30.01 in 10.0 mi NW 6.9 mph - 0.00 in Rain Light Rain
4:53 PM 51.1 °F - 45.0 °F 80% 30.00 in 10.0 mi NW 6.9 mph - 0.00 in   Partly Cloudy
5:53 PM 53.1 °F - 46.0 °F 77% 30.01 in 10.0 mi West 3.5 mph - N/A   Clear
6:53 PM 52.0 °F - 46.0 °F 80% 30.03 in 10.0 mi SW 4.6 mph - N/A   Clear
7:53 PM 52.0 °F - 46.0 °F 80% 30.07 in 10.0 mi NW 6.9 mph - N/A   Clear
8:53 PM 50.0 °F - 43.0 °F 77% 30.11 in 10.0 mi West 4.6 mph - N/A   Clear
9:53 PM 48.9 °F - 43.0 °F 80% 30.13 in 10.0 mi WSW 4.6 mph - N/A   Clear
10:53 PM 46.9 °F - 43.0 °F 86% 30.14 in 10.0 mi West 3.5 mph - N/A   Clear
11:53 PM 46.0 °F 43.1 °F 42.1 °F 86% 30.15 in 10.0 mi WNW 5.8 mph - N/A   Clear